When you browse on this site, cookies collect data to enhance your experience and personalize the content and advertising you see.
Visit our Privacy Policy to learn more. By continuing to use the site, you agree to this use of cookies and data.
  • In Spain
  • List of Countries
  • For 7 days
  • Water Temperature
  • Satellite Maps
  • Weather Map
  • Weather Widgets
  • user-avatar
    Login

    Hourly Weather Ahmadabad

    Today, 21 July, Sunday

    Time Temperature Precipitation Wind Pressure Humidity
    00:00 +34°C° 2.2 mm 4 mps 746 mmHg 62%
    01:00 +34°C° 2.2 mm 4 mps 746 mmHg 66%
    02:00 +33°C° 2.2 mm 3 mps 746 mmHg 69%
    03:00 +33°C° 0.6 mm 4 mps 746 mmHg 70%
    04:00 +32°C° 0.6 mm 4 mps 745 mmHg 71%
    05:00 +32°C° 0.6 mm 4 mps 745 mmHg 72%
    06:00 +33°C° 0 mm 4 mps 746 mmHg 71%
    07:00 +33°C° 0 mm 5 mps 747 mmHg 70%
    08:00 +34°C° 0 mm 5 mps 747 mmHg 69%
    09:00 +35°C° 0 mm 4 mps 747 mmHg 61%
    10:00 +37°C° 0 mm 4 mps 747 mmHg 54%
    11:00 +39°C° 0 mm 3 mps 746 mmHg 47%
    12:00 +40°C° 0 mm 3 mps 746 mmHg 44%
    13:00 +41°C° 0 mm 2 mps 745 mmHg 40%
    14:00 +42°C° 0 mm 1 mps 745 mmHg 37%
    15:00 +41°C° 0.2 mm 2 mps 744 mmHg 40%
    16:00 +40°C° 0.2 mm 3 mps 744 mmHg 44%
    17:00 +38°C° 0.2 mm 4 mps 743 mmHg 48%
    18:00 +37°C° 0.7 mm 5 mps 744 mmHg 54%
    19:00 +36°C° 0.7 mm 5 mps 744 mmHg 59%
    20:00 +34°C° 0.7 mm 5 mps 745 mmHg 65%
    21:00 +34°C° 1.7 mm 4 mps 745 mmHg 67%
    22:00 +33°C° 1.7 mm 4 mps 745 mmHg 70%
    23:00 +32°C° 1.7 mm 4 mps 745 mmHg 73%

    Tomorrow, 22 July, Monday

    Time Temperature Precipitation Wind Pressure Humidity
    00:00 +31°C° 0.3 mm 3 mps 745 mmHg 72%
    01:00 +33°C° 0.3 mm 3 mps 745 mmHg 71%
    02:00 +32°C° 0.3 mm 2 mps 745 mmHg 70%
    03:00 +32°C° 0.1 mm 2 mps 745 mmHg 71%
    04:00 +31°C° 0.1 mm 2 mps 745 mmHg 72%
    05:00 +31°C° 0.1 mm 2 mps 745 mmHg 73%
    06:00 +32°C° 0.2 mm 2 mps 745 mmHg 71%
    07:00 +34°C° 0.2 mm 3 mps 746 mmHg 69%
    08:00 +34°C° 0.2 mm 3 mps 746 mmHg 66%
    09:00 +35°C° 0.3 mm 4 mps 746 mmHg 63%
    10:00 +36°C° 0.3 mm 4 mps 746 mmHg 60%
    11:00 +37°C° 0.3 mm 5 mps 747 mmHg 56%
    12:00 +37°C° 0 mm 5 mps 746 mmHg 55%
    13:00 +37°C° 0 mm 5 mps 745 mmHg 54%
    14:00 +39°C° 0 mm 5 mps 745 mmHg 52%
    15:00 +39°C° 0.4 mm 5 mps 744 mmHg 52%
    16:00 +37°C° 0.4 mm 5 mps 744 mmHg 52%
    17:00 +37°C° 0.4 mm 5 mps 744 mmHg 52%
    18:00 +37°C° 0.9 mm 4 mps 744 mmHg 54%
    19:00 +36°C° 0.9 mm 3 mps 745 mmHg 57%
    20:00 +35°C° 0.9 mm 2 mps 745 mmHg 59%
    21:00 +34°C° 0 mm 1 mps 745 mmHg 61%
    22:00 +34°C° 0 mm 1 mps 745 mmHg 63%
    23:00 +34°C° 0 mm 1 mps 745 mmHg 65%

    Day after tomorrow, 23 July, Tuesday

    Time Temperature Precipitation Wind Pressure Humidity
    00:00 +34°C° 0.6 mm 2 mps 745 mmHg 68%
    01:00 +33°C° 0.6 mm 3 mps 745 mmHg 71%
    02:00 +32°C° 0.6 mm 4 mps 745 mmHg 74%
    03:00 +32°C° 1.7 mm 4 mps 745 mmHg 75%
    04:00 +32°C° 1.7 mm 4 mps 745 mmHg 76%
    05:00 +32°C° 1.7 mm 4 mps 744 mmHg 77%
    06:00 +32°C° 0.1 mm 4 mps 745 mmHg 75%
    07:00 +33°C° 0.1 mm 4 mps 745 mmHg 72%
    08:00 +34°C° 0.1 mm 4 mps 746 mmHg 70%
    09:00 +35°C° 0 mm 4 mps 746 mmHg 64%
    10:00 +36°C° 0 mm 4 mps 746 mmHg 59%
    11:00 +38°C° 0 mm 4 mps 746 mmHg 53%
    12:00 +38°C° 0 mm 4 mps 745 mmHg 50%
    13:00 +40°C° 0 mm 4 mps 745 mmHg 47%
    14:00 +41°C° 0 mm 4 mps 744 mmHg 44%
    15:00 +41°C° 0 mm 4 mps 744 mmHg 44%
    16:00 +41°C° 0 mm 4 mps 743 mmHg 45%
    17:00 +41°C° 0 mm 4 mps 743 mmHg 45%
    18:00 +38°C° 0.3 mm 4 mps 743 mmHg 48%
    19:00 +37°C° 0.3 mm 4 mps 744 mmHg 51%
    20:00 +36°C° 0.3 mm 4 mps 744 mmHg 55%
    21:00 +36°C° 0.9 mm 3 mps 744 mmHg 57%
    22:00 +36°C° 0.9 mm 3 mps 745 mmHg 59%
    23:00 +35°C° 0.9 mm 2 mps 745 mmHg 62%

    24 July, Wednesday

    Time Temperature Precipitation Wind Pressure Humidity
    00:00 +35°C° 0.1 mm 3 mps 745 mmHg 64%
    01:00 +34°C° 0.1 mm 4 mps 745 mmHg 66%
    02:00 +33°C° 0.1 mm 4 mps 744 mmHg 68%
    03:00 +33°C° 0.6 mm 4 mps 744 mmHg 70%
    04:00 +33°C° 0.6 mm 4 mps 744 mmHg 72%
    05:00 +32°C° 0.6 mm 4 mps 744 mmHg 74%
    06:00 +32°C° 0.2 mm 4 mps 745 mmHg 73%
    07:00 +33°C° 0.2 mm 4 mps 745 mmHg 71%
    08:00 +33°C° 0.2 mm 4 mps 745 mmHg 70%
    09:00 +34°C° 0 mm 4 mps 745 mmHg 65%
    10:00 +36°C° 0 mm 5 mps 745 mmHg 60%
    11:00 +37°C° 0 mm 5 mps 745 mmHg 55%
    12:00 +39°C° 0 mm 5 mps 745 mmHg 52%
    13:00 +40°C° 0 mm 5 mps 744 mmHg 48%
    14:00 +41°C° 0 mm 5 mps 743 mmHg 45%
    15:00 +40°C° 0 mm 4 mps 743 mmHg 45%
    16:00 +40°C° 0 mm 4 mps 743 mmHg 46%
    17:00 +40°C° 0 mm 4 mps 742 mmHg 46%
    18:00 +38°C° 0 mm 4 mps 743 mmHg 48%
    19:00 +38°C° 0 mm 3 mps 743 mmHg 50%
    20:00 +37°C° 0 mm 2 mps 744 mmHg 52%
    21:00 +37°C° 0 mm 3 mps 744 mmHg 54%
    22:00 +36°C° 0 mm 4 mps 744 mmHg 56%
    23:00 +35°C° 0 mm 5 mps 745 mmHg 58%

    25 July, Thursday

    Time Temperature Precipitation Wind Pressure Humidity
    00:00 +34°C° 1.2 mm 4 mps 745 mmHg 62%
    01:00 +34°C° 1.2 mm 3 mps 744 mmHg 66%
    02:00 +32°C° 1.2 mm 2 mps 744 mmHg 70%
    03:00 +31°C° 0.9 mm 3 mps 745 mmHg 71%
    04:00 +32°C° 0.9 mm 4 mps 745 mmHg 73%
    05:00 +32°C° 0.9 mm 4 mps 745 mmHg 75%
    06:00 +32°C° 0.1 mm 5 mps 745 mmHg 73%
    07:00 +32°C° 0.1 mm 5 mps 745 mmHg 71%
    08:00 +33°C° 0.1 mm 5 mps 745 mmHg 69%
    09:00 +34°C° 0 mm 5 mps 746 mmHg 66%
    10:00 +35°C° 0 mm 5 mps 746 mmHg 62%
    11:00 +36°C° 0 mm 5 mps 746 mmHg 58%
    12:00 +36°C° 0 mm 5 mps 745 mmHg 55%
    13:00 +37°C° 0 mm 4 mps 745 mmHg 53%
    14:00 +38°C° 0 mm 4 mps 744 mmHg 50%
    15:00 +38°C° 0 mm 4 mps 744 mmHg 49%
    16:00 +38°C° 0 mm 4 mps 744 mmHg 48%
    17:00 +38°C° 0 mm 4 mps 743 mmHg 46%
    18:00 +38°C° 0 mm 4 mps 744 mmHg 49%
    19:00 +37°C° 0 mm 4 mps 744 mmHg 51%
    20:00 +36°C° 0 mm 4 mps 744 mmHg 53%
    21:00 +35°C° 0 mm 5 mps 745 mmHg 56%
    22:00 +34°C° 0 mm 6 mps 745 mmHg 59%
    23:00 +34°C° 0 mm 6 mps 745 mmHg 62%

    26 July, Friday

    Time Temperature Precipitation Wind Pressure Humidity
    00:00 +33°C° 0 mm 6 mps 745 mmHg 64%
    01:00 +33°C° 0 mm 6 mps 744 mmHg 66%
    02:00 +32°C° 0 mm 6 mps 744 mmHg 67%
    03:00 +32°C° 0 mm 6 mps 744 mmHg 68%
    04:00 +32°C° 0 mm 5 mps 744 mmHg 69%
    05:00 +32°C° 0 mm 4 mps 745 mmHg 69%
    06:00 +32°C° 0.1 mm 4 mps 745 mmHg 69%
    07:00 +32°C° 0.1 mm 4 mps 745 mmHg 70%
    08:00 +32°C° 0.1 mm 4 mps 746 mmHg 70%
    09:00 +33°C° 0.2 mm 4 mps 746 mmHg 67%
    10:00 +33°C° 0.2 mm 4 mps 746 mmHg 64%
    11:00 +34°C° 0.2 mm 4 mps 746 mmHg 62%
    12:00 +33°C° 0.7 mm 4 mps 745 mmHg 65%
    13:00 +33°C° 0.7 mm 4 mps 745 mmHg 68%
    14:00 +32°C° 0.7 mm 4 mps 745 mmHg 71%
    15:00 +32°C° 1.5 mm 4 mps 744 mmHg 73%
    16:00 +30°C° 1.5 mm 3 mps 744 mmHg 74%
    17:00 +30°C° 1.5 mm 3 mps 744 mmHg 76%
    18:00 +30°C° 2 mm 3 mps 744 mmHg 78%
    19:00 +29°C° 2 mm 3 mps 745 mmHg 81%
    20:00 +29°C° 2 mm 3 mps 745 mmHg 83%
    21:00 +29°C° 2.1 mm 3 mps 745 mmHg 84%
    22:00 +29°C° 2.1 mm 4 mps 745 mmHg 84%
    23:00 +29°C° 2.1 mm 4 mps 746 mmHg 85%
    Show more